• In Uzbekistan
  • List of Countries
  • For 7 days
  • Water Temperature
  • Satellite Maps
  • Weather Map
  • Weather Widgets
  • user-avatar
    Login

    Hourly Weather Batina

    Today, 22 July, Saturday

    Time Temperature Precipitation Wind Pressure Humidity
    00:00 +33°C° 0 mm 3 mps 673 mmHg 25%
    01:00 +31°C° 0 mm 2 mps 673 mmHg 27%
    02:00 +30°C° 0 mm 2 mps 672 mmHg 29%
    03:00 +29°C° 0 mm 1 mps 672 mmHg 31%
    04:00 +30°C° 0 mm 2 mps 673 mmHg 29%
    05:00 +31°C° 0 mm 2 mps 673 mmHg 28%
    06:00 +31°C° 0 mm 2 mps 674 mmHg 27%
    07:00 +34°C° 0 mm 4 mps 674 mmHg 23%
    08:00 +36°C° 0 mm 5 mps 675 mmHg 20%
    09:00 +39°C° 0 mm 7 mps 675 mmHg 16%
    10:00 +39°C° 0 mm 7 mps 676 mmHg 15%
    11:00 +40°C° 0 mm 8 mps 676 mmHg 14%
    12:00 +41°C° 0 mm 8 mps 676 mmHg 13%
    13:00 +41°C° 0 mm 8 mps 676 mmHg 13%
    14:00 +41°C° 0 mm 7 mps 676 mmHg 13%
    15:00 +41°C° 0 mm 7 mps 675 mmHg 13%
    16:00 +41°C° 0 mm 6 mps 675 mmHg 13%
    17:00 +40°C° 0 mm 5 mps 675 mmHg 13%
    18:00 +40°C° 0 mm 5 mps 675 mmHg 14%
    19:00 +37°C° 0.2 mm 4 mps 676 mmHg 16%
    20:00 +36°C° 0.2 mm 3 mps 676 mmHg 19%
    21:00 +34°C° 0.2 mm 2 mps 676 mmHg 22%
    22:00 +34°C° 0.1 mm 2 mps 676 mmHg 23%
    23:00 +34°C° 0.1 mm 2 mps 676 mmHg 24%

    Tomorrow, 23 July, Sunday

    Time Temperature Precipitation Wind Pressure Humidity
    00:00 +32°C° 0.1 mm 2 mps 676 mmHg 25%
    01:00 +32°C° 0 mm 2 mps 676 mmHg 26%
    02:00 +31°C° 0 mm 2 mps 676 mmHg 26%
    03:00 +31°C° 0 mm 2 mps 676 mmHg 26%
    04:00 +31°C° 0 mm 3 mps 676 mmHg 25%
    05:00 +33°C° 0 mm 3 mps 676 mmHg 25%
    06:00 +33°C° 0 mm 3 mps 676 mmHg 24%
    07:00 +35°C° 0 mm 3 mps 677 mmHg 21%
    08:00 +36°C° 0 mm 4 mps 677 mmHg 19%
    09:00 +38°C° 0 mm 4 mps 678 mmHg 16%
    10:00 +39°C° 0 mm 5 mps 678 mmHg 15%
    11:00 +40°C° 0 mm 5 mps 678 mmHg 14%
    12:00 +41°C° 0 mm 5 mps 678 mmHg 13%
    13:00 +41°C° 0 mm 5 mps 677 mmHg 13%
    14:00 +41°C° 0 mm 5 mps 677 mmHg 12%
    15:00 +41°C° 0 mm 5 mps 677 mmHg 12%
    16:00 +41°C° 0 mm 4 mps 676 mmHg 13%
    17:00 +40°C° 0 mm 4 mps 676 mmHg 14%
    18:00 +38°C° 0 mm 3 mps 676 mmHg 15%
    19:00 +37°C° 0.1 mm 3 mps 676 mmHg 18%
    20:00 +36°C° 0.1 mm 3 mps 676 mmHg 20%
    21:00 +34°C° 0.1 mm 2 mps 676 mmHg 22%
    22:00 +34°C° 0 mm 2 mps 676 mmHg 24%
    23:00 +32°C° 0 mm 2 mps 676 mmHg 25%

    Day after tomorrow, 24 July, Monday

    Time Temperature Precipitation Wind Pressure Humidity
    00:00 +32°C° 0 mm 2 mps 675 mmHg 27%
    01:00 +31°C° 0 mm 3 mps 675 mmHg 29%
    02:00 +31°C° 0 mm 3 mps 674 mmHg 31%
    03:00 +30°C° 0 mm 4 mps 674 mmHg 33%
    04:00 +30°C° 0 mm 3 mps 674 mmHg 33%
    05:00 +30°C° 0 mm 3 mps 674 mmHg 32%
    06:00 +31°C° 0 mm 2 mps 674 mmHg 32%
    07:00 +33°C° 0 mm 3 mps 674 mmHg 27%
    08:00 +35°C° 0 mm 5 mps 674 mmHg 23%
    09:00 +38°C° 0 mm 6 mps 675 mmHg 18%
    10:00 +39°C° 0 mm 6 mps 675 mmHg 17%
    11:00 +39°C° 0 mm 7 mps 675 mmHg 16%
    12:00 +40°C° 0 mm 7 mps 675 mmHg 16%
    13:00 +40°C° 0 mm 8 mps 674 mmHg 15%
    14:00 +41°C° 0 mm 8 mps 674 mmHg 15%
    15:00 +41°C° 0 mm 8 mps 673 mmHg 15%
    16:00 +39°C° 0 mm 8 mps 673 mmHg 20%
    17:00 +38°C° 0 mm 8 mps 673 mmHg 26%
    18:00 +35°C° 0 mm 7 mps 672 mmHg 31%
    19:00 +33°C° 0 mm 6 mps 672 mmHg 38%
    20:00 +30°C° 0 mm 5 mps 672 mmHg 45%
    21:00 +29°C° 0 mm 4 mps 672 mmHg 52%
    22:00 +28°C° 0 mm 4 mps 672 mmHg 55%
    23:00 +27°C° 0 mm 3 mps 672 mmHg 57%

    25 July, Tuesday

    Time Temperature Precipitation Wind Pressure Humidity
    00:00 +26°C° 0 mm 3 mps 672 mmHg 59%
    01:00 +25°C° 0 mm 3 mps 671 mmHg 62%
    02:00 +25°C° 0 mm 3 mps 671 mmHg 64%
    03:00 +24°C° 0 mm 2 mps 671 mmHg 66%
    04:00 +24°C° 0 mm 2 mps 671 mmHg 66%
    05:00 +23°C° 0 mm 2 mps 671 mmHg 66%
    06:00 +23°C° 0 mm 2 mps 671 mmHg 65%
    07:00 +25°C° 0 mm 2 mps 671 mmHg 55%
    08:00 +26°C° 0 mm 2 mps 672 mmHg 45%
    09:00 +28°C° 0 mm 2 mps 672 mmHg 35%
    10:00 +29°C° 0 mm 2 mps 672 mmHg 31%
    11:00 +31°C° 0 mm 2 mps 672 mmHg 27%
    12:00 +32°C° 0 mm 2 mps 673 mmHg 23%
    13:00 +34°C° 0 mm 3 mps 672 mmHg 21%
    14:00 +35°C° 0 mm 4 mps 672 mmHg 19%
    15:00 +35°C° 0 mm 5 mps 672 mmHg 17%
    16:00 +35°C° 0 mm 5 mps 672 mmHg 19%
    17:00 +34°C° 0 mm 5 mps 672 mmHg 20%
    18:00 +34°C° 0 mm 5 mps 671 mmHg 22%
    19:00 +32°C° 0 mm 4 mps 671 mmHg 27%
    20:00 +30°C° 0 mm 3 mps 671 mmHg 33%
    21:00 +28°C° 0 mm 2 mps 671 mmHg 38%
    22:00 +28°C° 0 mm 2 mps 671 mmHg 41%
    23:00 +27°C° 0 mm 2 mps 670 mmHg 43%

    26 July, Wednesday

    Time Temperature Precipitation Wind Pressure Humidity
    00:00 +26°C° 0 mm 2 mps 670 mmHg 46%
    01:00 +26°C° 0 mm 2 mps 670 mmHg 49%
    02:00 +25°C° 0 mm 2 mps 670 mmHg 52%
    03:00 +25°C° 0 mm 2 mps 670 mmHg 55%
    04:00 +24°C° 0 mm 2 mps 670 mmHg 55%
    05:00 +24°C° 0 mm 1 mps 670 mmHg 55%
    06:00 +24°C° 0 mm 1 mps 671 mmHg 55%
    07:00 +26°C° 0 mm 1 mps 671 mmHg 50%
    08:00 +27°C° 0 mm 2 mps 672 mmHg 45%
    09:00 +28°C° 0 mm 2 mps 672 mmHg 39%
    10:00 +30°C° 0 mm 3 mps 672 mmHg 34%
    11:00 +32°C° 0 mm 4 mps 672 mmHg 28%
    12:00 +34°C° 0 mm 5 mps 672 mmHg 23%
    13:00 +34°C° 0 mm 5 mps 672 mmHg 21%
    14:00 +35°C° 0 mm 5 mps 672 mmHg 18%
    15:00 +36°C° 0 mm 6 mps 672 mmHg 16%
    16:00 +35°C° 0 mm 6 mps 671 mmHg 19%
    17:00 +34°C° 0 mm 6 mps 671 mmHg 21%
    18:00 +33°C° 0 mm 6 mps 671 mmHg 24%
    19:00 +30°C° 0 mm 5 mps 671 mmHg 30%
    20:00 +29°C° 0 mm 4 mps 671 mmHg 36%
    21:00 +28°C° 0 mm 3 mps 671 mmHg 42%
    22:00 +27°C° 0 mm 3 mps 671 mmHg 44%
    23:00 +27°C° 0 mm 2 mps 671 mmHg 46%

    27 July, Thursday

    Time Temperature Precipitation Wind Pressure Humidity
    00:00 +26°C° 0 mm 2 mps 671 mmHg 48%
    01:00 +26°C° 0 mm 2 mps 670 mmHg 50%
    02:00 +25°C° 0 mm 2 mps 670 mmHg 51%
    03:00 +25°C° 0 mm 1 mps 670 mmHg 52%
    04:00 +25°C° 0 mm 1 mps 670 mmHg 52%
    05:00 +25°C° 0 mm 2 mps 671 mmHg 52%
    06:00 +25°C° 0 mm 2 mps 671 mmHg 52%
    07:00 +26°C° 0 mm 2 mps 672 mmHg 46%
    08:00 +27°C° 0 mm 2 mps 672 mmHg 41%
    09:00 +28°C° 0 mm 1 mps 673 mmHg 36%
    10:00 +29°C° 0 mm 2 mps 673 mmHg 31%
    11:00 +31°C° 0 mm 3 mps 673 mmHg 27%
    12:00 +33°C° 0 mm 4 mps 673 mmHg 22%
    13:00 +34°C° 0 mm 4 mps 673 mmHg 21%
    14:00 +34°C° 0 mm 5 mps 673 mmHg 19%
    15:00 +35°C° 0 mm 6 mps 673 mmHg 17%
    16:00 +34°C° 0 mm 6 mps 673 mmHg 19%
    17:00 +33°C° 0 mm 6 mps 673 mmHg 21%
    18:00 +32°C° 0 mm 6 mps 673 mmHg 22%
    19:00 +30°C° 0 mm 5 mps 673 mmHg 25%
    20:00 +29°C° 0 mm 4 mps 673 mmHg 28%
    21:00 +27°C° 0 mm 3 mps 673 mmHg 30%
    22:00 +27°C° 0 mm 3 mps 673 mmHg 32%
    23:00 +26°C° 0 mm 2 mps 673 mmHg 34%
    Show more